STARLINK-36723, 67915

Orbit data source: Space-Track

STARLINK-36723, 67915 is a payload satellite owned by SpaceX/Seattle (US) in LEO that was launched on Sun, 22 Feb 2026 UTC via an FALCON 9 launch vehicle from the Air Force Eastern Test Range (AFETR). Payload-class satellites include a variety of spacecraft equipped with specific instruments for various scientific and technological missions. These include communications satellites like Starlink; space stations such as the ISS; scientific satellites like the Hubble; Earth observation satellites from companies like Planet Labs, Umbra, and HawkEye 360; GPS; miniature CubeSats for education and research; and military/defense satellites.

Loading next visibility...
Identifier
67915, 2026-036M
Orbit
LEO
Country
Flag of USUS
Related business
Manufacturer
SpaceX/Seattle
Mission
Operational spacecraft
Bus & Motor
STARLINK V2MO, Unknown motor
Mass
575 kg wet, ~530 kg dry
Launch date (UTC)
2026-02-22 (3 weeks ago)
Launch vehicle
FALCON 9
Launch site
Air Force Eastern Test Range (AFETR)
Object type
Payload
Rocket body
Debris
Shape & HBR
Unknown
Radar Cross Section
RCS unknown

Expand to show TLE details & history
Last TLE update: 11 hours ago

TLE from 11 hours ago
0 STARLINK-36723
1 67915U 26036M   26071.91668981 -.01866180  00000-0 -11504-1 0  9993
2 67915  42.9992 229.9360 0001552 275.3225  38.9972 15.79277232  4169
Epoch: 2026-03-12T22:00Z
TLE epoch observation values (Epoch: 2026-03-12T22:00:01.999Z)
Latitude
-29.37684°
Longitude
52.47676°
Altitude
339.433 km
Speed
7.706 km/s
True Right ascension
12h 52m 10s
True Declination
-29° 13' 15"
Sunlit
Object was in full shadow at epoch
Visualization orbit readout
Latitude
Unknown
Longitude
Unknown
Altitude
Unknown
Speed
Unknown
Apparent Right ascension
Unknown
Apparent Declination
Unknown
Sunlit
N/A
Visualization observer readout
Local Sidereal Time
13:08:02
Azimuth
Unknown
Elevation
Unknown
Doppler factor
Unknown
Orbital elements
Apogee altitude
335.518 km
Perigee altitude
333.434 km
Semi-major axis
6,712.613 km
Eccentricity
0.00016
Inclination
42.9992°
RAAN
229.936°
Arg. of periapsis
275.3225°
True anomaly
39.00839°
Mean anomaly
38.9972°
Eccentric anomaly
39.0028°
Mean motion
3.94644 °/min
Orbital period
91.22 mins
BSTAR
-0.011504
Loading maneuver chart data...
Computing Atmospheric mass density...
Loading historical data...
Loading historical data...
Loading historical data...
Loading historical data...
Loading historical data...
Loading historical data...
Loading historical data...

Documentation

Showing up to 5 results
|